Regional Weather Roundup
Issued by NWS State College, PA

Home | Current Version | Previous Version | Text Only | Print | Product List | Glossary On
Versions: 1 2 3 4 5 6 7 8 9 10 11 12 13 14 15 16 17 18 19 20 21 22 23 24 25 26 27 28 29 30 31 32 33 34 35 36 37 38 39 40 41 42 43 44 45 46 47 48 49 50
000
ASUS41 KCTP 021510
RWRCTP

REGIONAL WEATHER ROUNDUP
NATIONAL WEATHER SERVICE STATE COLLEGE PA
1100 AM EDT MON MAY 02 2016

Note: "fair" indicates few or no clouds below 12,000 feet with no
significant weather and/or obstructions to visibility.

* = STATION THAT DOES NOT REPORT PRECIPITATION /E.G. RAIN...SNOW...ETC/
    THUNDER OR FOG.

PAZ002>004-007>009-013>016-020>023-029>032-021600-
WESTERN PENNSYLVANIA

CITY           SKY/WX    TMP DP  RH WIND       PRES   REMARKS
ERIE           CLOUDY    44  42  93 N9        29.99R
MEADVILLE        N/A    N/A N/A N/A MISG      29.95R
FRANKLIN*      CLOUDY    54  48  82 W10       29.95R
NEW CASTLE     CLOUDY    51  48  89 W8        29.97R
BEAVER COUNTY  CLOUDY    54  52  94 W6        29.96R FOG
BUTLER*        CLOUDY    55  52  88 W9        29.97R
PITTSBURGH INT PTSUNNY   66  55  67 W10       29.92R
PITTSBURGH     PTSUNNY   66  55  67 SW13G23   29.91R
INDIANA*       PTSUNNY   64  57  77 SW14G22   29.92S
LATROBE        PTSUNNY   64  59  82 SW9G18    29.92S
WASHINGTON CO* PTSUNNY   64  57  77 W13G20    29.94R
$$

PAZ004>006-010>012-017>019-024>028-033>037-041-042-045-046-049>053-021600-
CENTRAL PENNSYLVANIA

CITY           SKY/WX    TMP DP  RH WIND       PRES   REMARKS
BRADFORD       LGT RAIN  50  48  93 N7        29.90R FOG
DUBOIS         CLOUDY    56  52  86 W10       29.89R
CLEARFIELD     PTSUNNY   63  53  70 SW13G23   29.88S
JOHNSTOWN      CLOUDY    61  51  70 W10       29.91S
ALTOONA        PTSUNNY   68  57  68 SW17      29.90F
STATE COLLEGE  CLOUDY    61  57  88 W8        29.88F
WILLIAMSPORT   CLOUDY    53  49  86 SE3       29.89F
SELINSGROVE    CLOUDY    53  50  89 S8        29.92F FOG
FT INDIANTOWN  CLOUDY    51  51 100 SE1       29.94S FOG
CAPITAL CITY   CLOUDY    55  52  89 E8        29.93F FOG
HARRISBURG     CLOUDY    55  52  89 SE6       29.93F FOG
YORK           CLOUDY    59  55  87 CALM      29.93S
$$

PAZ038>040-043-044-047-048-054-055-060>062-067>071-021600-
EASTERN PENNSYLVANIA

CITY           SKY/WX    TMP DP  RH WIND       PRES   REMARKS
SCRANTON       CLOUDY    51  47  86 CALM      29.91S
MOUNT POCONO   FOG       44  44 100 S6        29.91F VSB 1/4
ALLENTOWN      CLOUDY    50  45  83 SE3       29.97R
QUAKERTOWN*    CLOUDY    48  48 100 S3        29.97S
READING        CLOUDY    50  47  89 SE6       29.95S
LANCASTER      CLOUDY    53  51  93 SE7       29.94F
COATESVILLE    FOG       50  50 100 VRB5      29.96F VSB<1/4
POTTSTOWN      CLOUDY    49  49 100 SE3       29.97F FOG
BLUE BELL      CLOUDY    48  48 100 SE3       29.96F
DOYLESTOWN     CLOUDY    47  47 100 VRB5      29.96S FOG
WILLOW GROVE   NOT AVBL
NORTH PHILA    CLOUDY    52  49  89 E7        29.98F
PHILADELPHIA   CLOUDY    53  48  83 E5        29.96F
$$




USA.gov is the U.S. government's official web portal to all federal, state and local government web resources and services.